Le nostre stazioni meteo in Italia

Pubblicità
Il mio iltempo24.it
Gela, Italia (16453): Temperatura & dewpoint: 15.09.2018 05:00:00 - 21.09.2018 05:00:00 (CEST)Gela, Italia (16453): velocità del vento: 15.09.2018 05:00:00 - 21.09.2018 05:00:00 (CEST)Gela, Italia (16453): direzione del vento: 15.09.2018 05:00:00 - 21.09.2018 05:00:00 (CEST)Gela, Italia (16453): reduced air pressure: 15.09.2018 05:00:00 - 21.09.2018 05:00:00 (CEST)Gela, Italia (16453): visibility: 15.09.2018 05:00:00 - 21.09.2018 05:00:00 (CEST)Gela, Italia (16453): ore di luce: 15.09.2018 05:00:00 - 21.09.2018 05:00:00 (CEST)
Data & Tempo tt [°C] td [°C] ff [km/h] ff [kn] dd ppp [hPa] vv [km] sd [min]
21.09.2018 05:00:00 - - - - - - - -
21.09.2018 04:00:00 - - - - - - - -
21.09.2018 03:00:00 - - - - - - - -
21.09.2018 02:00:00 - - - - - - - -
21.09.2018 01:00:00 - - - - - - - -
21.09.2018 00:00:00 - - - - - - - -
20.09.2018 23:00:00 - - - - - - - -
20.09.2018 22:00:00 - - - - - - - -
20.09.2018 21:00:00 - - - - - - - -
20.09.2018 20:00:00 24,8 19,9 2 1 N 1015,1 16 0
20.09.2018 19:00:00 - - - - - - - -
20.09.2018 18:00:00 - - - - - - - -
20.09.2018 17:00:00 25,6 19,0 13 7 SO 1015,0 20 60
20.09.2018 16:00:00 26,0 19,0 11 6 SO - 10 -
20.09.2018 15:00:00 25,0 18,0 8 4 OSO - 10 -
20.09.2018 14:00:00 25,4 18,4 8 4 SO 1016,3 20 60
20.09.2018 13:00:00 24,0 19,0 2 1 SSE - 10 -
20.09.2018 12:00:00 - - - - - - - -
20.09.2018 11:00:00 24,0 18,9 4 2 NNE 1017,1 10 0
20.09.2018 10:00:00 - - - - - - - -
20.09.2018 09:00:00 - - - - - - - -
20.09.2018 08:00:00 23,6 19,5 4 2 NE 1016,7 10 0
20.09.2018 07:00:00 - - - - - - - -
20.09.2018 06:00:00 - - - - - - - -
20.09.2018 05:00:00 - - - - - - - -
20.09.2018 04:00:00 - - - - - - - -
20.09.2018 03:00:00 - - - - - - - -
20.09.2018 02:00:00 - - - - - - - -
20.09.2018 01:00:00 - - - - - - - -
20.09.2018 00:00:00 - - - - - - - -
19.09.2018 23:00:00 - - - - - - - -
19.09.2018 22:00:00 - - - - - - - -
19.09.2018 21:00:00 - - - - - - - -
19.09.2018 20:00:00 24,0 15,8 9 5 ENE 1017,2 18 0
19.09.2018 19:00:00 25,0 15,0 8 4 E - 10 -
19.09.2018 18:00:00 26,0 15,0 8 4 NE - 10 -
19.09.2018 17:00:00 26,2 15,0 18 10 ENE 1017,8 10 0
19.09.2018 16:00:00 27,0 22,0 15 8 OSO - 10 -
19.09.2018 15:00:00 26,0 22,0 16 9 O - 10 -
19.09.2018 14:00:00 25,8 -30,0 18 10 OSO 1017,5 12 60
19.09.2018 13:00:00 26,0 21,0 15 8 SO - 10 -
19.09.2018 12:00:00 26,0 21,0 11 6 SO - 10 -
19.09.2018 11:00:00 25,6 21,1 4 2 OSO 1018,6 12 60
19.09.2018 10:00:00 25,0 21,0 5 3 SO - 10 -
19.09.2018 09:00:00 25,0 21,0 0 0 N - 10 -
19.09.2018 08:00:00 24,4 20,3 0 0 N 1018,0 12 0
19.09.2018 07:00:00 - - - - - - - -
19.09.2018 06:00:00 - - - - - - - -
19.09.2018 05:00:00 - - - - - - - -
19.09.2018 04:00:00 - - - - - - - -
19.09.2018 03:00:00 - - - - - - - -
19.09.2018 02:00:00 - - - - - - - -
19.09.2018 01:00:00 - - - - - - - -
19.09.2018 00:00:00 - - - - - - - -
18.09.2018 23:00:00 - - - - - - - -
18.09.2018 22:00:00 - - - - - - - -
18.09.2018 21:00:00 - - - - - - - -
18.09.2018 20:00:00 25,6 21,5 9 5 OSO 1017,9 10 0
18.09.2018 19:00:00 - - - - - - - -
18.09.2018 18:00:00 - - - - - - - -
18.09.2018 17:00:00 26,0 21,7 13 7 OSO 1018,3 10 60
18.09.2018 16:00:00 - - - - - - - -
18.09.2018 15:00:00 - - - - - - - -
18.09.2018 14:00:00 26,0 20,6 15 8 OSO 1019,1 18 60
18.09.2018 13:00:00 - - - - - - - -
18.09.2018 12:00:00 - - - - - - - -
18.09.2018 11:00:00 25,0 19,2 8 4 SO 1019,0 18 60
18.09.2018 10:00:00 - - - - - - - -
18.09.2018 09:00:00 - - - - - - - -
18.09.2018 08:00:00 23,0 19,4 5 3 ENE 1018,6 10 30
18.09.2018 07:00:00 - - - - - - - -
18.09.2018 06:00:00 - - - - - - - -
18.09.2018 05:00:00 - - - - - - - -
18.09.2018 04:00:00 - - - - - - - -
18.09.2018 03:00:00 - - - - - - - -
18.09.2018 02:00:00 - - - - - - - -
18.09.2018 01:00:00 - - - - - - - -
18.09.2018 00:00:00 - - - - - - - -
17.09.2018 23:00:00 - - - - - - - -
17.09.2018 22:00:00 - - - - - - - -
17.09.2018 21:00:00 - - - - - - - -
17.09.2018 20:00:00 25,8 21,5 5 3 OSO 1018,8 14 0
17.09.2018 19:00:00 - - - - - - - -
17.09.2018 18:00:00 - - - - - - - -
17.09.2018 17:00:00 26,2 21,0 11 6 SO 1018,9 18 60
17.09.2018 16:00:00 - - - - - - - -
17.09.2018 15:00:00 - - - - - - - -
17.09.2018 14:00:00 26,2 21,2 15 8 NO 1020,0 18 60
17.09.2018 13:00:00 - - - - - - - -
17.09.2018 12:00:00 - - - - - - - -
17.09.2018 11:00:00 26,2 21,0 11 6 SSO 1020,5 10 60
17.09.2018 10:00:00 - - - - - - - -
17.09.2018 09:00:00 - - - - - - - -
17.09.2018 08:00:00 24,0 20,3 4 2 NE 1015,0 20 18
17.09.2018 07:00:00 - - - - - - - -
17.09.2018 06:00:00 - - - - - - - -
17.09.2018 05:00:00 - - - - - - - -
17.09.2018 04:00:00 - - - - - - - -
17.09.2018 03:00:00 - - - - - - - -
17.09.2018 02:00:00 - - - - - - - -
17.09.2018 01:00:00 - - - - - - - -
17.09.2018 00:00:00 - - - - - - - -
16.09.2018 23:00:00 - - - - - - - -
16.09.2018 22:00:00 - - - - - - - -
16.09.2018 21:00:00 - - - - - - - -
16.09.2018 20:00:00 25,8 20,6 11 6 OSO 1019,8 10 0
16.09.2018 19:00:00 - - - - - - - -
16.09.2018 18:00:00 - - - - - - - -
16.09.2018 17:00:00 26,0 20,1 15 8 NNO 1019,7 10 60
16.09.2018 16:00:00 - - - - - - - -
16.09.2018 15:00:00 - - - - - - - -
16.09.2018 14:00:00 26,4 18,5 13 7 SO 1020,6 10 60
16.09.2018 13:00:00 - - - - - - - -
16.09.2018 12:00:00 - - - - - - - -
16.09.2018 11:00:00 26,0 18,9 9 5 OSO 1020,7 20 60
16.09.2018 10:00:00 - - - - - - - -
16.09.2018 09:00:00 - - - - - - - -
16.09.2018 08:00:00 23,2 18,7 4 2 NE 1020,3 20 30
16.09.2018 07:00:00 - - - - - - - -
16.09.2018 06:00:00 - - - - - - - -
16.09.2018 05:00:00 - - - - - - - -
16.09.2018 04:00:00 - - - - - - - -
16.09.2018 03:00:00 - - - - - - - -
16.09.2018 02:00:00 - - - - - - - -
16.09.2018 01:00:00 - - - - - - - -
16.09.2018 00:00:00 - - - - - - - -
15.09.2018 23:00:00 - - - - - - - -
15.09.2018 22:00:00 - - - - - - - -
15.09.2018 21:00:00 - - - - - - - -
15.09.2018 20:00:00 25,6 20,0 4 2 O 1018,9 10 18
15.09.2018 19:00:00 - - - - - - - -
15.09.2018 18:00:00 - - - - - - - -
15.09.2018 17:00:00 26,4 19,8 11 6 OSO 1018,2 25 60
15.09.2018 16:00:00 27,0 19,0 13 7 OSO - 10 -
15.09.2018 15:00:00 27,0 19,0 18 10 OSO - 10 -
15.09.2018 14:00:00 26,6 18,7 18 10 SO 1018,1 25 60
15.09.2018 13:00:00 - - - - - - - -
15.09.2018 12:00:00 27,0 17,0 11 6 OSO - 10 -
15.09.2018 11:00:00 26,6 16,2 11 6 SSO 1018,2 25 60
15.09.2018 10:00:00 26,0 17,0 9 5 ENE - 10 -
15.09.2018 09:00:00 25,0 19,0 13 7 NE - 10 -
15.09.2018 08:00:00 24,0 19,3 5 3 NE 1017,3 25 24
15.09.2018 07:00:00 - - - - - - - -
15.09.2018 06:00:00 - - - - - - - -
15.09.2018 05:00:00 - - - - - - - -

tt = Temperatura
td = dewpoint
ff = velocità del vento
dd = direzione del vento
ppp = reduced air pressure
vv = visibility
sd = ore di luce

Stazioni seguenti

WeatherPro
AMSI
MeteoEarth